{"data":{"norad_id":56128,"intl_designator":"2023-046AN","name":"STARLINK-6122","alt_names":[],"object_type":"PAYLOAD","status":"ACTIVE","operator":null,"country":"US","launch_date":"2023-03-29","launch_site_code":"AFETR","launch_vehicle":null,"mission":null,"orbit_class":"UNKNOWN","rcs_meters":null,"size_class":null,"mass_kg":null,"dimensions":null,"purposes":["comms"],"wikipedia_slug":null,"has_3d_model":false,"image_url":null,"decayed_at":null,"tle_current":{"epoch":"2026-09-20T00:08:11.942592Z","epoch_age_seconds":151362,"freshness":"FRESH","line1":"1 56128U 23046AN  26263.00569378  .00002321  00000+0  93807-4 0  9992","line2":"2 56128  43.0021 129.9848 0000986 266.3288  93.7451 15.27595687191918","mean_motion":15.27595687,"eccentricity":9.86e-5,"inclination_deg":43.0021,"raan_deg":129.9848,"arg_perigee_deg":266.3288,"mean_anomaly_deg":93.7451,"bstar":9.3807e-5,"rev_number":19191,"period_min":94.265780681011,"perigee_km":482.32561560264,"apogee_km":483.67863223787,"semimajor_km":6861.1391239203,"source":"CELESTRAK","updated_at":"2026-09-21T09:00:33.387469Z"}}}